Regional Weather Roundup
Issued by NWS Cleveland, OH

Home | Current Version | Previous Version | Text Only | Print | Product List | Glossary Off
Versions: 1 2 3 4 5 6 7 8 9 10 11 12 13 14 15 16 17 18 19 20 21 22 23 24 25 26 27 28 29 30 31 32 33 34 35 36 37 38 39 40 41 42 43 44 45 46 47 48 49 50

000
ASUS41 KCLE 221810
RWRCLE
OHIO REGIONAL WEATHER ROUNDUP
NATIONAL WEATHER SERVICE WILMINGTON, OH
100 PM EST MON DEC 22 2014

NOTE: "FAIR" INDICATES FEW OR NO CLOUDS BELOW 12,000 FEET WITH NO
SIGNIFICANT WEATHER AND/OR OBSTRUCTIONS TO VISIBILITY.

OHZ001>008-015>018-024>027-034-035-043-044-221900-
   NORTHWEST OHIO

CITY           SKY/WX    TMP DP  RH WIND       PRES   REMARKS
DEFIANCE       CLOUDY    36  29  75 E10       29.94F HAZE
FINDLAY        PTSUNNY   39  30  70 E9        29.94F
TOLEDO EXPRESS CLOUDY    37  28  70 E8        29.97F
TOLEDO METCALF PTSUNNY   38  29  70 E5        29.99F
LIMA           CLOUDY    43  32  65 E7        29.93F
$$

OHZ009>014-019>023-028>033-038-089-221900-
   NORTHEAST OHIO

CITY           SKY/WX    TMP DP  RH WIND       PRES   REMARKS
CLE-HOPKINS    CLOUDY    40  30  67 S7        30.03F
CLE-LAKEFRONT  PTSUNNY   41  29  62 SE10      30.01F
CUY CO. ARPT   CLOUDY    43  32  65 S12       30.03F
LORAIN-ELYRIA  CLOUDY    38  30  73 SE9       30.00F
ASHTABULA      MOSUNNY   39  28  64 SE12      30.04F
AKRON-CANTON   PTSUNNY   40  30  67 SE6       30.01F
WOOSTER        MOSUNNY   37  31  78 SE5       30.01F
MANSFIELD      MOSUNNY   39  31  72 SE9       29.98F
YOUNGSTOWN     CLOUDY    36  27  69 SE9       30.03F
$$

OHZ042-051>053-060>062-070>072-077>081-221900-
  SOUTHWEST OHIO

CITY           SKY/WX    TMP DP  RH WIND       PRES   REMARKS
CINC-COVINGTON PTSUNNY   50  35  56 SE6       29.91F
CINC-LUNKEN    PTSUNNY   51  37  58 S6        29.92F
HAMILTON       PTSUNNY   49  35  58 SE3       29.93F
DAYTON         CLOUDY    43  33  68 SE8       29.93F
WRIGHT-PAT AFB NOT AVBL
DAYTON GENERAL PTSUNNY   47  36  65 E6        29.91F
WILMINGTON     PTSUNNY   45  35  68 SE7       29.93F
$$

OHZ036-037-039>041-045>050-054>059-063>069-073>076-082>088-221900-
  CENTRAL AND SOUTHEAST OHIO

CITY           SKY/WX    TMP DP  RH WIND       PRES   REMARKS
COLUMBUS       PTSUNNY   44  32  62 SE7       29.97F
OSU AIRPORT    MOSUNNY   45  32  60 SE9       29.95F
BOLTON FIELD   SUNNY     45  34  65 SE9       29.97F
RICKENBACK AFB CLOUDY    44  34  68 E6        29.97F
NEWARK         CLOUDY    42  31  64 CALM      29.98F
MARION         PTSUNNY   41  31  67 SE8       29.96F
LANCASTER      CLOUDY    59  34  39 SE7       29.98F
ZANESVILLE       N/A    N/A N/A N/A MISG      30.00F
NEW PHILLY     MOSUNNY   41  31  67 VRB3      30.02F
$$


USA.gov is the U.S. government's official web portal to all federal, state and local government web resources and services.